[[{"header":{"parameterUnit":"m.s-1","parameterCategory":1,"la1":30.2991,"la2":30.254,"lo1":-89.0895,"lo2":-89.0444,"dy":0.0017,"dx":0.0017,"nx":28,"ny":28,"refTime":"2024-05-15T21:00:00:Z","depth":0,"parameterNumber":2,"parameterNumberName":"U-component_of_WINDS"},"data":[0,0,0,0,0,0,0,0,0,0,0,0,0,0,0,0,0,0,0,0,0,0,0,0,0,0,0,0,0,0,0,0,0,0,0,0,0,0,0,0,0,0,0,0,0,0,0,0,0,0,0,0,0,0,0,0,0,0,-3.2545,-3.2546,0,-3.2595,-3.2595,-3.2596,-3.2545,-3.2543,-3.2541,-3.2539,-3.2592,-3.2595,-3.2598,0,0,0,0,0,0,0,0,0,0,0,0,0,-3.2408,-3.2411,-3.2545,-3.2546,-3.2546,-3.2595,-3.2595,-3.2596,-3.2546,-3.2543,-3.2541,-3.2538,-3.259,-3.2594,-3.2598,0,0,0,0,0,0,0,0,0,0,0,0,0,-3.2464,-3.2411,-3.2545,-3.2527,-3.2526,-3.2595,-3.2595,-3.2596,-3.2546,-3.2543,-3.254,-3.2537,-3.2589,-3.2594,-3.2599,-3.2688,0,0,-3.2613,-3.2616,0,0,0,0,0,0,0,0,-3.246,-3.2469,-3.2529,-3.2528,-3.2527,-3.2561,-3.2566,-3.2627,-3.2547,-3.2538,-3.2539,-3.2536,-3.2584,-3.2589,-3.2605,-3.269,-3.2693,-3.2614,-3.2617,-3.2619,-3.262,0,0,0,0,0,0,0,-3.2457,-3.2466,-3.2565,-3.253,-3.2529,-3.2517,-3.2521,-3.2577,-3.2577,-3.2539,-3.2535,-3.2542,-3.2583,-3.26,-3.2606,-3.2693,-3.2614,-3.2618,-3.2621,-3.2623,-3.2855,-3.2858,0,0,0,0,0,0,-3.2455,-3.2463,-3.2563,-3.2566,-3.2486,-3.2522,-3.2527,-3.2553,-3.2576,-3.2577,-3.2544,-3.2539,-3.2593,-3.26,-3.2607,-3.2713,-3.2619,-3.2623,-3.2626,-3.2852,-3.2856,-3.2859,0,0,0,0,0,0,-3.2452,-3.2464,-3.2561,-3.2514,-3.2525,-3.2527,-3.2557,-3.2556,-3.2573,-3.258,-3.258,-3.2562,-3.2591,-3.26,-3.2668,-3.2714,-3.2626,-3.263,-3.2848,-3.2853,-3.2858,-3.2926,0,0,0,0,0,0,-3.2448,-3.2463,-3.2497,-3.2515,-3.2528,-3.2621,-3.256,-3.2559,-3.2581,-3.2575,-3.2597,-3.2598,-3.259,-3.2661,-3.2673,-3.2719,-3.2634,-3.2844,-3.285,-3.2856,-3.292,-3.2932,-3.2944,0,0,0,0,0,-3.2443,-3.2514,-3.2499,-3.2511,-3.257,-3.2624,-3.2631,-3.262,-3.2585,-3.2619,-3.2624,-3.2597,-3.2708,-3.2669,-3.2682,-3.273,-3.2841,-3.2848,-3.2856,-3.2914,-3.293,-3.2943,0,0,0,0,0,0,-3.2502,-3.2516,-3.2499,-3.2578,-3.26,-3.2615,-3.2658,-3.2637,-3.267,-3.2663,-3.2648,-3.2653,-3.2725,-3.2734,-3.2691,-3.2818,-3.2769,-3.2779,-3.2809,-3.2824,-3.2836,-3.2832,-3.2638,0,0,0,0,0,-3.2524,-3.2566,-3.2577,-3.2645,-3.2657,-3.2656,-3.2679,-3.2668,-3.269,-3.27,-3.2709,-3.2732,-3.2772,-3.2799,-3.2836,-3.2921,-3.2925,-3.2961,-3.2973,-3.2983,-3.2991,-3.3037,-3.3053,-3.2883,-3.2883,-3.2883,0,0,-3.257,-3.2583,-3.2611,-3.2658,-3.2673,-3.2717,-3.2664,-3.2713,-3.2746,-3.2707,-3.2771,-3.278,-3.2804,-3.2881,-3.2916,-3.2891,-3.3039,-3.2992,-3.3,-3.3003,-3.3046,-3.3062,-3.3077,-3.2888,-3.2887,-3.2887,0,0,-3.2677,-3.2691,-3.275,-3.2766,-3.2791,-3.2789,-3.2804,-3.2822,-3.2826,-3.289,-3.2862,-3.2901,-3.297,-3.2989,-3.3007,-3.3122,-3.3098,-3.3134,-3.3197,-3.3242,-3.3255,-3.3267,-3.3307,-3.3322,-3.3143,-3.3143,-3.3143,0,-3.2731,-3.2796,-3.2783,-3.2834,-3.2855,-3.2822,-3.2881,-3.2898,-3.2934,-3.295,-3.2922,-3.3008,-3.3022,-3.3103,-3.3131,-3.3147,-3.3163,-3.3131,-3.3254,-3.3266,-3.3276,-3.3315,-3.333,-3.3147,-3.3147,-3.3147,-3.3146,0,-3.2862,-3.2907,-3.2952,-3.2986,-3.3013,-3.3068,-3.3063,-3.3092,-3.3079,-3.3081,-3.3147,-3.3163,-3.3203,-3.3221,-3.321,-3.3301,-3.3285,-3.3256,-3.3206,-3.3297,-3.3333,-3.3347,-3.3153,-3.3152,-3.3151,-3.315,0,0,-3.3006,-3.3032,-3.3049,-3.3064,-3.3089,-3.3124,-3.3178,-3.3216,-3.3241,-3.3267,-3.3312,-3.3371,-3.3344,-3.3366,-3.3356,-3.3395,-3.3484,-3.3361,-3.3362,-3.3383,-3.3586,-3.3607,-3.3624,-3.3469,-3.3472,-3.3474,-3.3583,0,-3.3113,-3.3206,-3.3195,-3.3284,-3.3326,-3.3295,-3.3342,-3.3362,-3.3366,-3.3402,-3.3406,-3.3448,-3.341,-3.3422,-3.346,-3.3466,-3.3525,-3.3458,-3.3511,-3.3513,-3.3505,-3.3643,-3.3665,-3.3767,-3.3597,-3.36,-3.3601,0,-3.325,-3.328,-3.3373,-3.3391,-3.3408,-3.345,-3.3484,-3.352,-3.3543,-3.3542,-3.3566,-3.3549,-3.3604,-3.3554,-3.3629,-3.3583,-3.3605,-3.3611,-3.3615,-3.3619,-3.3562,-3.365,-3.38,-3.3815,-3.3623,-3.3622,-3.362,0,-3.3345,-3.3409,-3.3473,-3.3487,-3.351,-3.354,-3.3551,-3.3571,-3.3595,-3.3625,-3.364,-3.3677,-3.3697,-3.3726,-3.372,-3.3684,-3.3797,-3.3746,-3.3798,-3.3798,-3.3822,-3.3821,-3.3977,-3.3837,-3.3837,-3.3837,-3.3836,0,-3.3466,-3.3523,-3.3516,-3.3555,-3.3619,-3.3607,-3.3671,-3.3678,-3.3696,-3.3736,-3.3712,-3.3751,-3.3741,-3.3779,-3.3775,-3.3837,-3.3847,-3.3848,-3.3846,-3.385,-3.385,-3.3863,-3.3856,-3.3841,-3.384,-3.3839,-3.3838,0,-3.3583,-3.358,-3.3648,-3.3663,-3.3669,-3.3715,-3.3729,-3.3766,-3.3768,-3.3819,-3.383,-3.3833,-3.3877,-3.3874,-3.3923,-3.392,-3.3998,-3.3988,-3.399,-3.3987,-3.4039,-3.4034,-3.4209,-3.4232,-3.4078,-3.4079,-3.4081,0,-3.366,-3.3703,-3.3724,-3.3749,-3.3761,-3.3802,-3.3826,-3.3816,-3.3842,-3.3871,-3.3905,-3.3946,-3.3979,-3.4051,-3.4057,-3.4095,-3.4086,-3.4144,-3.4091,-3.4093,-3.4086,-3.4083,-3.4088,-3.4155,-3.4156,-3.4158,-3.4159,0,-3.3796,-3.3792,-3.3827,-3.3862,-3.3891,-3.3919,-3.3943,-3.3965,-3.3958,-3.3988,-3.4032,-3.4058,-3.4108,-3.415,-3.4186,-3.4198,-3.4178,-3.4176,-3.419,-3.4194,-3.4193,-3.4194,-3.4018,-3.4172,-3.417,-3.4169,-3.4169,-3.4168,-3.3895,-3.3932,-3.3952,-3.3992,-3.4009,-3.4033,-3.4069,-3.4074,-3.4111,-3.415,-3.4142,-3.4192,-3.4214,-3.426,-3.4276,-3.4315,-3.4294,-3.4314,-3.4319,-3.4324,-3.433,-3.4187,-3.4321,-3.4321,-3.4321,-3.432,-3.432,0,-3.403,-3.4041,-3.4078,-3.4113,-3.4144,-3.4122,-3.4148,-3.4176,-3.422,-3.4242,-3.4274,-3.4325,-3.4365,-3.4375,-3.4414,-3.4443,-3.4435,-3.4454,-3.4451,-3.4454,-3.4347,-3.4331,-3.446,-3.446,-3.446,-3.446,-3.446,-3.446,-3.4103,-3.4165,-3.4164,-3.4234,-3.4245,-3.4293,-3.431,-3.4332,-3.4349,-3.4407,-3.444,-3.4446,-3.4463,-3.4503,-3.4539,-3.4541,-3.4556,-3.4578,-3.4577,-3.4476,-3.4462,-3.4449,-3.4433,-3.4582,-3.4582,-3.4681,-3.4682,-3.4683]},{"header":{"parameterUnit":"m.s-1","parameterCategory":1,"la1":30.2991,"la2":30.254,"lo1":-89.0895,"lo2":-89.0444,"dy":0.0017,"dx":0.0017,"nx":28,"ny":28,"refTime":"2024-05-15T21:00:00:Z","depth":0,"parameterNumber":3,"parameterNumberName":"V-component_of_WINDS"},"data":[0,0,0,0,0,0,0,0,0,0,0,0,0,0,0,0,0,0,0,0,0,0,0,0,0,0,0,0,0,0,0,0,0,0,0,0,0,0,0,0,0,0,0,0,0,0,0,0,0,0,0,0,0,0,0,0,0,0,3.8952,3.8953,0,3.902,3.9021,3.9022,3.8987,3.8985,3.8983,3.8981,3.9049,3.9053,3.9056,0,0,0,0,0,0,0,0,0,0,0,0,0,3.8788,3.8792,3.8952,3.8953,3.8954,3.902,3.9021,3.9022,3.8987,3.8985,3.8983,3.8981,3.9048,3.9052,3.9056,0,0,0,0,0,0,0,0,0,0,0,0,0,3.8858,3.8793,3.8952,3.8944,3.8944,3.902,3.9021,3.9022,3.8987,3.8985,3.8982,3.8979,3.9047,3.9052,3.9057,3.9144,0,0,3.9073,3.9075,0,0,0,0,0,0,0,0,3.8854,3.8864,3.8944,3.8945,3.8945,3.8992,3.8988,3.9063,3.8988,3.8971,3.8981,3.8978,3.9032,3.9039,3.9057,3.9147,3.915,3.9073,3.9077,3.9079,3.908,0,0,0,0,0,0,0,3.885,3.8861,3.8979,3.8946,3.8946,3.8937,3.8944,3.9002,3.9016,3.8972,3.897,3.8979,3.9032,3.9052,3.9059,3.9151,3.9073,3.9078,3.9081,3.9083,3.9315,3.9318,0,0,0,0,0,0,3.8846,3.8857,3.8977,3.8981,3.8892,3.8942,3.895,3.898,3.9015,3.9018,3.8981,3.8977,3.9045,3.9053,3.9061,3.9165,3.9079,3.9084,3.9087,3.9312,3.9316,3.9319,0,0,0,0,0,0,3.8842,3.8857,3.8974,3.8919,3.8933,3.8948,3.8982,3.8983,3.9003,3.9022,3.9024,3.8999,3.9043,3.9053,3.9124,3.9167,3.9086,3.9091,3.9309,3.9313,3.9317,3.9375,0,0,0,0,0,0,3.8838,3.8856,3.8889,3.892,3.8936,3.9037,3.8984,3.8986,3.9012,3.9008,3.904,3.9042,3.9042,3.9116,3.9129,3.9173,3.9095,3.9305,3.9311,3.9316,3.9369,3.9381,3.9391,0,0,0,0,0,3.8832,3.8902,3.8891,3.8906,3.8979,3.9039,3.9048,3.9047,3.9016,3.905,3.9062,3.9041,3.916,3.9123,3.9138,3.9184,3.9302,3.9309,3.9316,3.9364,3.9379,3.939,0,0,0,0,0,0,3.8875,3.8906,3.8894,3.8976,3.9006,3.9033,3.9076,3.9062,3.91,3.9093,3.9089,3.9096,3.9169,3.9183,3.9142,3.927,3.9226,3.9236,3.9258,3.9272,3.9283,3.9278,3.9099,0,0,0,0,0,3.8895,3.8942,3.8966,3.9036,3.9051,3.9061,3.9087,3.9083,3.9113,3.9125,3.9142,3.9171,3.9215,3.9244,3.9285,3.9371,3.9377,3.9409,3.942,3.9429,3.9438,3.9484,3.9499,3.9341,3.9341,3.9341,0,0,3.8935,3.8957,3.8987,3.9045,3.9067,3.9116,3.9072,3.9125,3.9161,3.9133,3.9201,3.9214,3.9246,3.9325,3.936,3.9338,3.9483,3.9438,3.9444,3.9449,3.9493,3.9508,3.9521,3.9346,3.9345,3.9344,0,0,3.9033,3.9055,3.9116,3.9139,3.9174,3.918,3.9194,3.9224,3.9233,3.9301,3.9281,3.9323,3.9399,3.9423,3.9445,3.9552,3.9535,3.9565,3.9622,3.9668,3.968,3.9691,3.973,3.9744,3.9574,3.9574,3.9574,0,3.9078,3.9152,3.9149,3.9204,3.923,3.9208,3.927,3.9292,3.9338,3.9356,3.9332,3.9427,3.9446,3.953,3.9557,3.9575,3.9592,3.9562,3.9679,3.969,3.97,3.9737,3.9752,3.9578,3.9577,3.9577,3.9577,0,3.9206,3.9258,3.9303,3.9349,3.938,3.9438,3.9443,3.9475,3.9468,3.9477,3.9546,3.9569,3.9615,3.9634,3.9628,3.9718,3.9704,3.9679,3.9635,3.9719,3.9754,3.9768,3.9583,3.9581,3.958,3.958,0,0,3.9335,3.9379,3.9395,3.9416,3.9453,3.9492,3.9549,3.9594,3.9622,3.9654,3.9702,3.9766,3.9744,3.9769,3.9765,3.9805,3.9889,3.9775,3.9776,3.9796,3.999,4.0009,4.0026,3.9877,3.988,3.9882,3.9988,0,3.9437,3.9538,3.9536,3.963,3.9677,3.9656,3.9706,3.9733,3.9742,3.9783,3.9792,3.9839,3.9805,3.9821,3.9859,3.9871,3.9928,3.9863,3.9922,3.9924,3.9916,4.0044,4.0064,4.0163,4.0001,4.0003,4.0005,0,3.9569,3.9607,3.9705,3.9735,3.9755,3.9799,3.9841,3.9881,3.9911,3.9915,3.9943,3.9933,3.999,3.9944,4.0023,3.9979,4.0002,4.0012,4.0016,4.0022,3.9971,4.0055,4.0194,4.0209,4.0026,4.0025,4.0023,0,3.9654,3.9729,3.9798,3.9816,3.9852,3.9885,3.9901,3.9928,3.9956,3.9992,4.001,4.0052,4.0076,4.0108,4.0109,4.0076,4.0189,4.0143,4.0194,4.0195,4.022,4.0219,4.0367,4.0234,4.0234,4.0233,4.0233,0,3.9769,3.983,3.9837,3.988,3.9947,3.9945,4.0012,4.0025,4.005,4.0094,4.0077,4.0119,4.0118,4.016,4.0161,4.0226,4.0237,4.0241,4.0241,4.0244,4.0243,4.026,4.0254,4.0237,4.0236,4.0236,4.0235,0,3.9876,3.9883,3.9957,3.9985,3.9994,4.0043,4.0066,4.0107,4.0114,4.017,4.0183,4.0195,4.0244,4.0248,4.0304,4.0304,4.0384,4.0376,4.0375,4.0374,4.0425,4.0421,4.059,4.0612,4.0464,4.0465,4.0466,0,3.995,3.9997,4.003,4.0059,4.0077,4.0124,4.0152,4.0151,4.0181,4.0219,4.0255,4.0302,4.034,4.0419,4.0432,4.0475,4.0468,4.0524,4.0474,4.0476,4.047,4.0468,4.0473,4.0534,4.0536,4.0537,4.0538,0,4.008,4.0081,4.0123,4.0167,4.0201,4.0235,4.0267,4.0291,4.0293,4.0328,4.0378,4.0408,4.0465,4.0513,4.0555,4.057,4.0555,4.0554,4.0568,4.0572,4.057,4.0573,4.0402,4.055,4.0549,4.0548,4.0547,4.0547,4.0173,4.0214,4.0244,4.0292,4.0315,4.0345,4.0385,4.0397,4.0439,4.0487,4.0483,4.0539,4.0567,4.0622,4.0642,4.0685,4.0666,4.0686,4.0692,4.0697,4.0703,4.0562,4.0692,4.0692,4.0691,4.0691,4.0691,0,4.0304,4.0322,4.0365,4.0411,4.0448,4.043,4.0464,4.0497,4.0546,4.0574,4.0612,4.067,4.0715,4.0732,4.0776,4.0808,4.0802,4.0819,4.0818,4.0822,4.0717,4.0701,4.0823,4.0823,4.0823,4.0823,4.0823,4.0823,4.0376,4.0445,4.0449,4.0529,4.0546,4.0602,4.0623,4.065,4.0673,4.0738,4.0776,4.0787,4.0811,4.0856,4.0897,4.0901,4.0919,4.094,4.094,4.0842,4.0829,4.0816,4.0801,4.0943,4.0943,4.1042,4.1043,4.1043]}]]